Location: LewisvilleTX
(33.0462°N, 96.9942°W)
Time: 15:38:27
(UTC+00:00)

MANDRAKE 2 BAKER - Pass Details

Date: 01 June 2022
Orbit: 516 x 531 km, 97.6° (Epoch: 03 July)

Event Time Altitude Azimuth Distance (km) Brightness Sun altitude
Exits shadow 09:08:09 11° 309° (NW) 1,720 ? -22.6°
Drops below altitude 10° 09:08:20 10° 311° (NW) 1,774 ? -22.6°
Sets 09:10:56 0° 330° (NNW) 2,665 ? -22.3°
